Regional Weather Roundup
Issued by NWS

Home | Current Version | Previous Version | Graphics & Text | Print | Product List | Glossary On
Versions: 1 2 3 4 5 6 7 8 9 10 11 12 13 14 15 16 17 18 19 20 21 22 23 24 25 26 27 28 29 30 31 32 33 34 35 36 37 38 39 40 41 42 43 44 45 46 47 48 49 50
000
ASUS43 KLOT 250704
RWRIL

ILLINOIS REGIONAL WEATHER ROUNDUP
NATIONAL WEATHER SERVICE CHICAGO/ROMEOVILLE IL
200 AM CDT MON SEP 25 2017

NOTE: "FAIR" INDICATES FEW OR NO CLOUDS BELOW 12,000 FEET WITH NO
SIGNIFICANT WEATHER AND/OR OBSTRUCTIONS TO VISIBILITY.

* THESE STATIONS ARE NOT UNDER NWS QUALITY CONTROL. THEY ALSO MAY NOT
  REPORT WEATHER SUCH AS PRECIPITATION OR FOG.

ILZ001-002-007-009-015-016-024-250800-
NORTHWEST ILLINOIS

CITY           SKY/WX    TMP DP  RH WIND       PRES   REMARKS
MOLINE         CLEAR     71  60  68 CALM      29.95S
STERLING*      CLEAR     65  61  87 E5        29.98S
SAVANNA*       CLEAR     64  63  94 CALM      29.97S
$$

ILZ003-004-008-010-011-017-018-250800-
NORTH CENTRAL ILLINOIS

CITY           SKY/WX    TMP DP  RH WIND       PRES   REMARKS
ROCKFORD       CLEAR     66  60  81 CALM      30.00S
FREEPORT*      CLEAR     67  59  76 SE5       30.00S
ROCHELLE*      CLEAR     63  59  88 CALM      30.00S
DE KALB*       CLEAR     70  60  70 SE7       30.01S
PERU*          CLEAR     71  58  64 SE9       29.99R
$$

ILZ005-006-012>014-019>023-250800-
NORTHEAST ILLINOIS

CITY           SKY/WX    TMP DP  RH WIND       PRES   REMARKS
CHICAGO-OHARE  CLEAR     72  59  63 SE7       29.99S
CHICAGO-MIDWAY CLEAR     76  57  51 S6        30.00S
AURORA         CLEAR     68  61  78 SE6       30.00S
LANSING*       PTCLDY    67  61  80 CALM      30.01S
JOLIET*        CLEAR     68  61  78 SE3       30.00S
WAUKEGAN       CLEAR     66  65  96 CALM      29.99F FOG
DUPAGE AIRPORT CLEAR     69  61  75 S3        30.00R
KANKAKEE*      PTCLDY    67  58  73 SE3       30.02S
WHEELING       CLEAR     68  64  87 CALM      30.01S
MORRIS*        CLEAR     71  59  67 CALM      29.99R
ROMEOVILLE*    CLEAR     68  58  71 S7        30.01R
NORTHERLY ISL    N/A     71  63  75 E2          N/A
$$

LMZ740>746-250800-
SOUTHERN LAKE MICHIGAN

STATION/POSITION SKY/WX   TEMP    WIND        PRES    VSBY  WAVE
                          AIR SEA DIR/SP/G                  HT/PER
                          (F)     (DEG/KT/KT) (MB)    (MI)  (FT/S)
SOUTHERN BUOY              74 71  130/  6/  8 1015.9          0
WILMETTE HARBOR            72 70  160/  6/  6   N/A           1
HARRISON CRIB              75     170/  7/  7   N/A
BURNHAM HARBOR             72                   N/A
CALUMET HARBOR             76     180/  5/  8 1015.4R
BURNS HARBOR               76     170/  8/ 12 1016.6S
MICHIGAN CITY              75     150/  9/ 12   N/A
MICHIGAN CITY 6N           74 72  160/  8/ 10   N/A           1
ST. JOSEPH                 72 72  150/  8/ 10 1016.4R         1
$$

ILZ025>027-034>036-040-047-049-050-058-095>099-250800-
WEST-CENTRAL ILLINOIS

CITY           SKY/WX    TMP DP  RH WIND       PRES   REMARKS
QUINCY         CLEAR     73  62  68 S5        29.95S
GALESBURG*     CLEAR     67  60  79 SE5       29.98S
MACOMB*        CLEAR     62  60  92 SE3       29.99R
JACKSONVILLE*  CLEAR     71  60  68 S5        29.97R
PITTSFIELD*    CLEAR     67  63  86 E5        29.98R
$$

ILZ028>032-037-038-041>044-048-051>054-059>061-250800-
CENTRAL ILLINOIS

CITY           SKY/WX    TMP DP  RH WIND       PRES   REMARKS
PONTIAC        CLEAR     65  63  93 CALM      30.00S
BLOOMINGTON    MOCLDY    71  60  68 S12       30.01S
DECATUR        CLEAR     66  60  81 CALM      30.00S
PEORIA         CLEAR     73  59  61 S3        29.97S
LACON*         CLEAR     67  60  78 CALM      29.98R
LINCOLN*       CLEAR     68  60  77 CALM      29.98S
SPRINGFIELD    CLEAR     74  62  66 S5        29.98R
TAYLORVILLE    CLEAR     69  60  74 SE5       29.99S HAZE
$$

ILZ033-039-045-046-055>057-062-063-250800-
EAST-CENTRAL ILLINOIS

CITY           SKY/WX    TMP DP  RH WIND       PRES   REMARKS
CHAMPAIGN      CLEAR     66  58  75 SE6       30.01F
RANTOUL*       CLEAR     69  61  76 E5        30.01S
MATTOON        CLEAR     69  61  75 S5        30.00S
PARIS*         CLEAR     64  59  83 CALM      30.02S
$$

ILZ079-100>102-250800-
SOUTHWEST ILLINOIS

CITY           SKY/WX    TMP DP  RH WIND       PRES   REMARKS
ALTON          CLEAR     66  64  93 CALM      29.98F
BELLEVILLE     CLEAR     65  63  93 S3        29.97S
CAHOKIA*       CLEAR     68  62  81 CALM      29.97F
SPARTA*        CLEAR     65  64  94 CALM      30.00S
$$

ILZ064>066-069>071-074>076-080>082-084>086-088>090-092>094-250800-
SOUTH-CENTRAL ILLINOIS

CITY           SKY/WX    TMP DP  RH WIND       PRES   REMARKS
CARBONDALE     CLEAR     65  65 100 CALM      29.99S
CAIRO*         CLEAR     64  64 100 CALM      29.99S
EFFINGHAM*     CLEAR     65  62  90 CALM      30.02S
MARION         CLEAR     68  66  94 CALM      30.00S
MT. VERNON       N/A     64  63  96 CALM      30.00R
CENTRALIA*     CLEAR     64  62  92 CALM      29.99S
SALEM*         CLEAR     65  61  86 CALM      29.99F
METROPOLIS*    CLEAR     65  64  96 CALM      30.00S
$$

ILZ067-068-072-073-078-083-087-091-250800-
SOUTHEAST ILLINOIS

CITY           SKY/WX    TMP DP  RH WIND       PRES   REMARKS
LAWRENCEVILLE  PTCLDY    69  63  81 CALM      30.00F
FLORA*         MOCLDY    68  64  86 CALM      30.00S
FAIRFIELD*     PTCLDY    65  61  86 CALM      29.99S
HARRISBURG*    PTCLDY    65  63  93 CALM      29.99S
ROBINSON*      PTCLDY    62  61  97 CALM      30.01F
CARMI*         CLOUDY    66  64  95 CALM      29.99S
$$

ABBREVIATIONS USED IN REMARKS
   TC - TEMPERATURE IN CELSIUS
  WCI - WIND CHILL INDEX
   HX - HEAT INDEX
  VSB - VISIBILITY
$$





USA.gov is the U.S. government's official web portal to all federal, state and local government web resources and services.